World > North America > United States > New York

Hourly Rutland, NY Regional Weather

Feedback E-mail the Weather

Latest News

Rutland, NY Weather Maps

°F °C°F °C
Rutland Weather Map
UTC Time: 5/27/2022, 22:38
Your Time:

Rutland, NY Regional Weather

Expires:202205272300;;669424
ASUS41 KBTV 272230
RWRBTV
VERMONT REGIONAL WEATHER ROUNDUP
NATIONAL WEATHER SERVICE BURLINGTON VT
600 PM EDT FRI MAY 27 2022

NOTE: "FAIR" INDICATES FEW OR NO CLOUDS BELOW 12,000 FEET WITH NO 
SIGNIFICANT WEATHER AND/OR OBSTRUCTIONS TO VISIBILITY.

* THESE REPORTS ARE NOT UNDER NWS QUALITY CONTROL AND/OR DO NOT
  REPORT WEATHER SUCH AS PRECIPITATION AND FOG.


NYZ007-026>031-035-052-083-087-272300-
_____NORTHERN NEW YORK_
  
CITY           SKY/WX    TMP DP  RH WIND       PRES   REMARKS
PLATTSBURGH    LGT RAIN  71  67  87 S5        29.69R                  
SARANAC LAKE   LGT RAIN  65  65 100 SW3       29.73F                  
MASSENA        PTSUNNY   69  65  86 S8        29.68F                  
OGDENSBURG*    FAIR      68  64  88 SW5       29.65F                  
POTSDAM*       LGT RAIN  66  66 100 S6        29.67F                  
WATERTOWN      RAIN      64  62  93 E5        29.65F FOG              
FT DRUM        RAIN      63  63 100 CALM      29.65F                  
ALBANY         CLOUDY    75  65  70 SE13      29.74F                  
GLENS FALLS    MOSUNNY   74  65  73 S8        29.72F                  

$$

SKY/WX - Weather  TMP - Temperature  DP - Dew Point  RH - Humidity
WIND - Wind Direction/Speed PRES - Barometric Pressure VSB - Visibility
WCI - Wind Chill Index E13G22 Wind - East Wind 13 mph/Gusts of 22 mph

Trending Headlines

Rutland Radar Loop



Rutland Quick Facts


National Two Day Weather Forecast


E-mail the Rutland Weather Forecast

Voice your opinion or tell us about page issues...